Hourly Data Report for October 12, 2013

All times are specified in Local Standard Time (LST). Add 1 hour to adjust for Daylight Saving Time where and when it is observed.

CAPE DORSET A
NUNAVUT

64°13'49.000" N
76°31'30.000" W
48.20 m
2400637
71366
YTE

Download Data

Hourly Data (October 2013)
Hourly Data Report for October 12, 2013
Temp Definition
°C
Dew Point Temp Definition
°C
Rel Hum Definition
%
Wind Dir Definition
10's deg

Wind Spd Definition
km/h
Visibility Definition
km
Stn Press Definition
kPa
Hmdx Definition


Wind Chill Definition


Weather Definition


TIME
00:00 Legend Double Dagger -0.3 -2.4 86 17 22 16.1 101.62   -6 LegendNANA
01:00 Legend Double Dagger -0.1 -2.8 82 16 13 16.1 101.54   -4 LegendNANA
02:00 Legend Double Dagger 0.0 -2.4 84 16 22 16.1 101.47   -6 LegendNANA
03:00 Legend Double Dagger 0.5 -3.1 77 16 26 16.1 101.42     LegendNANA
04:00 Legend Double Dagger 0.6 -2.9 78 16 28 16.1 101.33     LegendNANA
05:00 Legend Double Dagger 0.9 -2.3 79 16 30 16.1 101.21     LegendNANA
06:00 Legend Double Dagger 0.7 -1.2 87 15 33 16.1 101.12     LegendNANA
07:00 Legend Double Dagger 1.7 -1.8 78 16 35 16.1 101.05     LegendNANA
08:00 Legend Double Dagger 1.9 -2.3 74 16 33 16.1 100.97     LegendNANA
09:00 Legend Double Dagger 1.6 -1.2 82 15 45 11.3 100.87     LegendNANA
10:00 Legend Double Dagger 1.5 -0.2 89 14 46 8.1 100.75     LegendNANA
11:00 Legend Double Dagger 1.8 0.5 91 15 39 16.1 100.69     LegendNANA
12:00 Legend Double Dagger 2.0 0.5 90 16 37 16.1 100.64     LegendNANA
13:00 Legend Double Dagger 2.4 0.5 88 16 26 16.1 100.57     LegendNANA
14:00 Legend Double Dagger 2.1 0.8 91 18 22 9.7 100.57     LegendNANA
15:00 Legend Double Dagger 3.2 1.2 87 20 33 16.1 100.47     LegendNANA
16:00 Legend Double Dagger 3.7 1.7 87 22 26 16.1 100.46     LegendNANA
17:00 Legend Double Dagger 2.8 1.8 93 23 22 12.9 100.48     LegendNANA
18:00 Legend Double Dagger 3.2 2.0 92 23 13 16.1 100.50     LegendNANA
19:00 Legend Double Dagger 4.2 1.7 84 21 13 16.1 100.45     LegendNANA
20:00 Legend Double Dagger 3.9 1.7 85 18 9 12.9 100.44     LegendNANA
21:00 Legend Double Dagger 1.3 0.6 95 10 9 8.1 100.37     LegendNANA
22:00 Legend Double Dagger 1.9 0.6 91 8 8 16.1 100.35     LegendNANA
23:00 Legend Double Dagger 3.4 1.1 85 17 13 16.1 100.29     LegendNANA

Notes on Data Quality.

Legend

  • E = Estimated
  • M = Missing
  • NA = Not Available
  • ‡ = Partner data that is not subject to review by the National Climate Archives
Date modified: